Regional Weather Roundup
Issued by NWS

Home | Current Version | Previous Version | Text Only | Print | Product List | Glossary Off
Versions: 1 2 3 4 5 6 7 8 9 10 11 12 13 14 15 16 17 18 19 20 21 22 23 24 25 26 27 28 29 30 31 32 33 34 35 36 37 38 39 40 41 42 43 44 45 46 47 48 49 50

550
ASUS44 KJAN 011810
RWRMS

MISSISSIPPI HOURLY WEATHER ROUNDUP
NATIONAL WEATHER SERVICE JACKSON MS
1200 PM CST SUN MAR 01 2015

NOTE: "FAIR: INDICATES FEW OR NO CLOUDS BELOW 12,000 FEET WITH NO
SIGNIFICANT WEATHER AND/OR OBSTRUCTIONS TO VISIBILITY.

MSZ001>002-007>008-010>013-018>021-025>028-034>036-011900-
NORTHWEST MISSISSIPPI

CITY           SKY/WX    TMP DP  RH WIND       PRES   REMARKS
CLARKSDALE     CLOUDY    39  39 100 N6        30.35F VSB 3/4 WCI  35
CLEVELAND      DRIZZLE   39  39 100 N8        30.35R WCI  34
GREENWOOD        N/A    N/A N/A N/A MISG      30.33F
GREENVILLE     CLOUDY    41  39  93 N10       30.36R FOG
6HR MIN TEMP:  36; 6HR MAX TEMP:  41; 6HR PCP:  0.28;

OLIVE BRANCH   LGT RAIN  39  39 100 E6        30.35F FOG     WCI  35
OXFORD         CLOUDY    50  50 100 E3        30.35F FOG
TUNICA         RAIN      37  37 100 N5        30.36F WCI  34
$$

MSZ003>006-009-014>017-022>024-029>033-037>039-011900-
NORTHEAST MISSISSIPPI

CITY           SKY/WX    TMP DP  RH WIND       PRES   REMARKS
COLUMBUS AFB   CLOUDY    54  50  86 SE12      30.35F
6HR MIN TEMP:  50; 6HR MAX TEMP:  54; 6HR PCP:  0.01;

CORINTH        LGT RAIN  52  50  93 SE3       30.36F
GOLDN TRIANGLE CLOUDY    52  46  82 SE12      30.36F FOG
STARKVILLE     CLOUDY    52  50  93 SE8       30.37R
TUPELO         LGT RAIN  51  48  89 S7        30.38R
6HR MIN TEMP:  48; 6HR MAX TEMP:  52; 6HR PCP:  0.05;

$$

MSZ040-058-011900-
CENTRAL MISSISSIPPI

CITY           SKY/WX    TMP DP  RH WIND       PRES   REMARKS
JACKSON INTL   CLOUDY    58  54  86 S3        30.34R
6HR MIN TEMP:  53; 6HR MAX TEMP:  58;

JACKSON HAWKNS HVY RAIN  58  54  86 SW5       30.36R FOG
6HR MIN TEMP:  52; 6HR MAX TEMP:  58; 6HR PCP: TRACE;

MERIDIAN KEY   CLOUDY    56  51  84 CALM      30.36F
6HR MIN TEMP:  50; 6HR MAX TEMP:  56;

MERIDIAN NAS   CLOUDY    56  50  80 SE8       30.37F
6HR MIN TEMP:  49; 6HR MAX TEMP:  56;

VICKSBURG      LGT RAIN  57  55  93 CALM      30.31F FOG
6HR MIN TEMP:  48; 6HR MAX TEMP:  58; 6HR PCP:  0.13;

$$

MSZ059>079-011900-
SOUTH MISSISSIPPI

CITY           SKY/WX    TMP DP  RH WIND       PRES   REMARKS
BROOKHAVEN     LGT RAIN  61  57  88 E5        30.33F
HATTIESBURG    CLOUDY    61  54  77 SE9       30.35F
6HR MIN TEMP:  53; 6HR MAX TEMP:  61;

MCCOMB         LGT RAIN  60  58  92 SE6       30.31F FOG
6HR MIN TEMP:  54; 6HR MAX TEMP:  60; 6HR PCP:  0.04;

NATCHEZ        CLOUDY    61  57  88 SE7       30.30F
6HR MIN TEMP:  55; 6HR MAX TEMP:  61; 6HR PCP:  0.37;

PINE BELT      CLOUDY    59  52  77 S8        30.35F
6HR MIN TEMP:  52; 6HR MAX TEMP:  59;

$$

MSZ080>082-011900-
COASTAL MISSISSIPPI

CITY           SKY/WX    TMP DP  RH WIND       PRES   REMARKS
BAY ST LOUIS   CLOUDY    57  54  88 SE9G17    30.33F
BILOXI         NOT AVBL
PASCAGOULA     CLOUDY    57  54  89 E6        30.36S FOG
6HR MIN TEMP:  51; 6HR MAX TEMP:  57;

GULFPORT       CLOUDY    58  55  90 E9        30.34F FOG
6HR MIN TEMP:  53; 6HR MAX TEMP:  58;

$$



USA.gov is the U.S. government's official web portal to all federal, state and local government web resources and services.